STARLINK-36332

Last updated on Sun Mar 22 2026 00:02:05 GMT+0000 (Coordinated Universal Time)

1 67862U 26034N 26080.54466079 .00257276 00000+0 12647-2 0 9991 2 67862 53.1573 151.8386 0000499 96.4590 263.6490 15.80938116 5818
UTC large
Height (km)
Speed (km/s)
/
Latitude / Longitude
Inclination (degrees)
Orbital Period (minutes)
Azimuth
Elevation
Range (km)
Doppler Factor

Next 0 passes for location: London (51.5072 / 0.1276)

Sorry there are no passes over London.